User: anonymous
Location: Unspecified
(0.0000°N, 0.0000°E)
Time: 23:54:40
(UTC+00:00)
Language:

USA 161 - Orbit

View from above orbital plane
View from above orbital plane
View from above satellite
View from above satellite

Ground track
Ground track

The orbit data is extracted from the following two-line orbital elements,

1 26934U 01044A   13220.08411940 0.00013500  00000-0  17063-3 0    00
2 26934  97.0335 351.2744 0005500  40.7551 319.2448 15.59514737    09
Epoch (UTC): 08 August 2013 02:01:07
Eccentricity: 0.0005500
inclination: 97.0335°
perigee height: 385 km
apogee height: 393 km
right ascension of ascending node: 351.2744°
argument of perigee: 40.7551°
revolutions per day: 15.59514737
mean anomaly at epoch: 319.2448°
orbit number at epoch: 0

The dashed part of the orbit path shows where the satellite is in the earth's shadow,  

DLR